Auburn, CA

2:30 AM PST on January 20, 2018 (GMT -0800)
Auburn Municipal

Weather History for KAUN - November, 2010

Change the Weather History Date:

Wednesday, November 3, 2010

  Actual Average Record
Temperature  
Mean Temperature 64 °F -  
Max Temperature 77 °F 69 °F 118 °F (2011)
Min Temperature 51 °F 47 °F 35 °F (2013)
Degree Days  
Heating Degree Days 1    
Growing Degree Days 14 (Base 50)    
Moisture  
Dew Point 52 °F    
Average Humidity 64    
Maximum Humidity 94    
Minimum Humidity 41    
Precipitation  
Precipitation 0.00 in - - ()
Sea Level Pressure  
Sea Level Pressure 30.17 in    
Wind  
Wind Speed 2 mph (East)    
Max Wind Speed 8 mph    
Max Gust Speed -    
Visibility 10 miles    
Events      
Averages and records for this station are not official NWS values.
T = Trace of Precipitation, MM = Missing Value Source: NWS Daily Summary

Daily Weather History Graph

Daily Weather History Graph

Search for Another Location

Airport or City:

Trip Planner

Search our weather history database for the weather conditions in past years. The results will help you decide how hot, cold, wet, or windy it might be!

Date:

Astronomy

Nov. 03, 2010 Rise Set
Actual Time 7:33 AM PDT 6:01 PM PDT
Civil Twilight 7:06 AM PDT 6:29 PM PDT
Nautical Twilight 6:34 AM PDT 7:00 PM PDT
Astronomical Twilight 6:03 AM PDT 7:31 PM PDT
Moon 4:40 AM PDT (11/3) 4:13 PM PDT (11/3)
Length of Visible Light 11h 23m
Length of Day
10h 27m
Waning Crescent, 8% of the Moon is Illuminated
Nov 3
Waning Crescent
Nov 5
New
Nov 13
First Quarter
Nov 21
Full
Nov 28
Last Quarter

Hourly Weather History & Observations

Time (PDT) Temp. Dew Point Humidity Pressure Visibility Wind Dir Wind Speed Gust Speed Precip Events Conditions
12:10 AM 60.8 °F 53.6 °F 77% 30.21 in 10.0 mi Calm Calm - N/A   Clear
12:30 AM 60.8 °F 53.6 °F 77% 30.21 in 10.0 mi East 5.8 mph - N/A   Clear
12:50 AM 59.0 °F 53.6 °F 82% 30.21 in 10.0 mi East 8.1 mph - N/A   Clear
1:10 AM 60.8 °F 53.6 °F 77% 30.20 in 10.0 mi East 6.9 mph - N/A   Clear
1:30 AM 60.8 °F 53.6 °F 77% 30.20 in 10.0 mi East 6.9 mph - N/A   Clear
1:50 AM 60.8 °F 53.6 °F 77% 30.20 in 10.0 mi East 6.9 mph - N/A   Clear
2:10 AM 59.0 °F 53.6 °F 82% 30.20 in 10.0 mi Calm Calm - N/A   Clear
2:30 AM 57.2 °F 51.8 °F 82% 30.19 in 10.0 mi Calm Calm - N/A   Clear
2:50 AM 55.4 °F 51.8 °F 88% 30.19 in 1.2 mi Calm Calm - N/A   Clear
3:10 AM 53.6 °F 51.8 °F 94% 30.19 in 7.0 mi Calm Calm - N/A   Clear
3:30 AM 53.6 °F 51.8 °F 94% 30.19 in 10.0 mi Calm Calm - N/A   Clear
3:50 AM 57.2 °F 51.8 °F 82% 30.19 in 10.0 mi Calm Calm - N/A   Clear
4:10 AM 55.4 °F 51.8 °F 88% 30.18 in 10.0 mi Calm Calm - N/A   Clear
4:30 AM 59.0 °F 51.8 °F 77% 30.18 in 10.0 mi NE 4.6 mph - N/A   Clear
4:50 AM 59.0 °F 48.2 °F 67% 30.17 in 10.0 mi ENE 4.6 mph - N/A   Clear
5:10 AM 57.2 °F 48.2 °F 72% 30.18 in 10.0 mi Calm Calm - N/A   Clear
5:30 AM 55.4 °F 48.2 °F 77% 30.18 in 10.0 mi Calm Calm - N/A   Clear
5:50 AM 51.8 °F 46.4 °F 82% 30.19 in 10.0 mi Calm Calm - N/A   Clear
6:10 AM 53.6 °F 48.2 °F 82% 30.18 in 10.0 mi Calm Calm - N/A   Clear
6:30 AM 55.4 °F 48.2 °F 77% 30.18 in 10.0 mi Calm Calm - N/A   Clear
6:50 AM 53.6 °F 48.2 °F 82% 30.17 in 10.0 mi Calm Calm - N/A   Clear
7:10 AM 55.4 °F 46.4 °F 72% 30.17 in 10.0 mi East 3.5 mph - N/A   Clear
7:30 AM 57.2 °F 46.4 °F 67% 30.17 in 10.0 mi East 6.9 mph - N/A   Clear
7:50 AM 57.2 °F 46.4 °F 67% 30.17 in 10.0 mi East 6.9 mph - N/A   Clear
8:10 AM 59.0 °F 46.4 °F 63% 30.17 in 10.0 mi East 4.6 mph - N/A   Clear
8:30 AM 60.8 °F 46.4 °F 59% 30.17 in 10.0 mi East 6.9 mph - N/A   Clear
8:50 AM 62.6 °F 46.4 °F 55% 30.17 in 10.0 mi East 4.6 mph - N/A   Clear
9:10 AM 64.4 °F 46.4 °F 52% 30.19 in 10.0 mi Calm Calm - N/A   Clear
9:30 AM 64.4 °F 48.2 °F 56% 30.19 in 10.0 mi Calm Calm - N/A   Clear
9:50 AM 66.2 °F 48.2 °F 52% 30.19 in 10.0 mi Calm Calm - N/A   Clear
10:10 AM 68.0 °F 50.0 °F 52% 30.19 in 10.0 mi NE 3.5 mph - N/A   Clear
10:30 AM 68.0 °F 48.2 °F 49% 30.19 in 10.0 mi NE 3.5 mph - N/A   Clear
10:50 AM 69.8 °F 48.2 °F 46% 30.19 in 10.0 mi Calm Calm - N/A   Clear
11:10 AM 71.6 °F 51.8 °F 50% 30.19 in 8.0 mi NNW 3.5 mph - N/A   Clear
11:30 AM 73.4 °F 51.8 °F 47% 30.19 in 1.2 mi West 4.6 mph - N/A   Clear
11:50 AM 75.2 °F 51.8 °F 44% 30.19 in 10.0 mi South 3.5 mph - N/A   Clear
12:10 PM 75.2 °F 51.8 °F 44% 30.18 in 10.0 mi SSE 3.5 mph - N/A   Clear
12:30 PM 77.0 °F 51.8 °F 41% 30.18 in 10.0 mi WSW 3.5 mph - N/A   Clear
12:50 PM 77.0 °F 55.4 °F 47% 30.17 in 10.0 mi WSW 6.9 mph - N/A   Clear
1:10 PM 75.2 °F 53.6 °F 47% 30.16 in 10.0 mi WSW 3.5 mph - N/A   Clear
1:30 PM 75.2 °F 53.6 °F 47% 30.16 in 10.0 mi West 5.8 mph - N/A   Clear
1:50 PM 75.2 °F 55.4 °F 50% 30.16 in 10.0 mi West 4.6 mph - N/A   Clear
2:10 PM 75.2 °F 55.4 °F 50% 30.15 in 10.0 mi Calm Calm - N/A   Clear
2:30 PM 75.2 °F 55.4 °F 50% 30.15 in 10.0 mi Calm Calm - N/A   Clear
2:50 PM 75.2 °F 53.6 °F 47% 30.14 in 10.0 mi Calm Calm - N/A   Clear
3:10 PM 75.2 °F 53.6 °F 47% 30.13 in 10.0 mi Calm Calm - N/A   Clear
3:30 PM 77.0 °F 53.6 °F 44% 30.13 in 10.0 mi Calm Calm - N/A   Clear
3:50 PM 77.0 °F 53.6 °F 44% 30.13 in 10.0 mi Calm Calm - N/A   Clear
4:10 PM 75.2 °F 55.4 °F 50% 30.13 in 10.0 mi Calm Calm - N/A   Clear
4:30 PM 75.2 °F 53.6 °F 47% 30.13 in 10.0 mi Calm Calm - N/A   Clear
4:50 PM 75.2 °F 53.6 °F 47% 30.12 in 10.0 mi Calm Calm - N/A   Clear
5:10 PM 75.2 °F 55.4 °F 50% 30.12 in 10.0 mi Calm Calm - N/A   Clear
5:30 PM 73.4 °F 53.6 °F 50% 30.12 in 10.0 mi Calm Calm - N/A   Clear
5:50 PM 69.8 °F 55.4 °F 60% 30.11 in 10.0 mi Calm Calm - N/A   Clear
6:10 PM 64.4 °F 55.4 °F 73% 30.11 in 10.0 mi Calm Calm - N/A   Clear
6:30 PM 60.8 °F 53.6 °F 77% 30.12 in 10.0 mi Calm Calm - N/A   Clear
6:50 PM 66.2 °F 55.4 °F 68% 30.13 in 10.0 mi Calm Calm - N/A   Clear
7:10 PM 62.6 °F 55.4 °F 77% 30.13 in 10.0 mi Calm Calm - N/A   Clear
7:30 PM 60.8 °F 53.6 °F 77% 30.13 in 10.0 mi Calm Calm - N/A   Clear
7:50 PM 59.0 °F 53.6 °F 82% 30.13 in 10.0 mi East 5.8 mph - N/A   Clear
8:10 PM 66.2 °F 53.6 °F 64% 30.13 in 10.0 mi ENE 3.5 mph - N/A   Clear
8:30 PM 64.4 °F 55.4 °F 73% 30.13 in 10.0 mi East 5.8 mph - N/A   Clear
8:50 PM 64.4 °F 55.4 °F 73% 30.12 in 10.0 mi East 3.5 mph - N/A   Clear
9:10 PM 64.4 °F 57.2 °F 77% 30.13 in 10.0 mi East 4.6 mph - N/A   Clear
9:30 PM 66.2 °F 55.4 °F 68% 30.13 in 10.0 mi Calm Calm - N/A   Clear
9:50 PM 62.6 °F 55.4 °F 77% 30.14 in 10.0 mi Calm Calm - N/A   Clear
10:10 PM 62.6 °F 55.4 °F 77% 30.14 in 10.0 mi Calm Calm - N/A   Clear
10:50 PM 62.6 °F 55.4 °F 77% 30.13 in 10.0 mi ESE 3.5 mph - N/A   Clear
11:10 PM 64.4 °F 53.6 °F 68% 30.13 in 10.0 mi East 8.1 mph - N/A   Clear
11:30 PM 64.4 °F 53.6 °F 68% 30.13 in 10.0 mi East 6.9 mph - N/A   Clear
11:50 PM 64.4 °F 51.8 °F 64% 30.13 in 10.0 mi East 6.9 mph - N/A   Clear